TimeCDT,TemperatureF,Dew PointF,Humidity,Sea Level PressureIn,VisibilityMPH,Wind Direction,Wind SpeedMPH,Gust SpeedMPH,PrecipitationIn,Events,Conditions,WindDirDegrees,DateUTC
12:53 AM,53.1,43.0,69,29.91,10.0,Calm,Calm,-,N/A,,Clear,0,2012-10-03 05:53:00
1:53 AM,46.9,43.0,86,29.92,10.0,Calm,Calm,-,N/A,,Clear,0,2012-10-03 06:53:00
2:53 AM,46.9,43.0,86,29.92,10.0,Calm,Calm,-,N/A,,Clear,0,2012-10-03 07:53:00
3:53 AM,46.9,43.0,86,29.92,10.0,Calm,Calm,-,N/A,,Clear,0,2012-10-03 08:53:00
4:53 AM,45.0,42.1,90,29.92,10.0,Calm,Calm,-,N/A,,Clear,0,2012-10-03 09:53:00
5:53 AM,45.0,42.1,90,29.94,10.0,Calm,Calm,-,N/A,,Clear,0,2012-10-03 10:53:00
6:53 AM,44.1,41.0,89,29.95,10.0,Calm,Calm,-,N/A,,Clear,0,2012-10-03 11:53:00
7:53 AM,48.0,43.0,83,29.95,10.0,Calm,Calm,-,N/A,,Clear,0,2012-10-03 12:53:00
8:53 AM,57.0,46.9,69,29.96,10.0,SE,3.5,-,N/A,,Clear,130,2012-10-03 13:53:00
9:53 AM,66.0,46.9,50,29.96,10.0,South,4.6,-,N/A,,Clear,180,2012-10-03 14:53:00
10:53 AM,75.0,45.0,34,29.96,10.0,SSW,9.2,-,N/A,,Clear,200,2012-10-03 15:53:00
11:53 AM,78.1,43.0,29,29.95,10.0,SSW,9.2,-,N/A,,Clear,210,2012-10-03 16:53:00
12:53 PM,80.1,42.1,26,29.92,10.0,South,12.7,-,N/A,,Clear,190,2012-10-03 17:53:00
1:53 PM,81.0,43.0,26,29.90,10.0,SSW,11.5,18.4,N/A,,Clear,200,2012-10-03 18:53:00
2:53 PM,82.0,44.1,26,29.88,10.0,South,13.8,19.6,N/A,,Clear,180,2012-10-03 19:53:00
3:53 PM,82.9,45.0,26,29.87,10.0,South,13.8,-,N/A,,Clear,190,2012-10-03 20:53:00
4:53 PM,82.0,48.0,30,29.87,10.0,South,17.3,21.9,N/A,,Clear,170,2012-10-03 21:53:00
5:53 PM,81.0,48.0,31,29.87,10.0,South,13.8,-,N/A,,Clear,170,2012-10-03 22:53:00
6:53 PM,77.0,48.9,37,29.88,10.0,South,10.4,-,N/A,,Clear,180,2012-10-03 23:53:00
8:53 PM,72.0,48.9,44,29.92,10.0,SSE,9.2,-,N/A,,Clear,160,2012-10-04 01:53:00
9:53 PM,69.1,50.0,51,29.93,10.0,South,8.1,-,N/A,,Clear,170,2012-10-04 02:53:00
10:53 PM,66.0,50.0,56,29.94,10.0,South,8.1,-,N/A,,Clear,170,2012-10-04 03:53:00
11:53 PM,64.9,50.0,58,29.94,10.0,South,10.4,-,N/A,,Clear,170,2012-10-04 04:53:00